{"data":{"norad_id":48436,"epoch":"2026-05-24T12:36:30.789504Z","epoch_age_seconds":130151,"freshness":"FRESH","line1":"1 48436U 21040J   26144.52535636 -.00006357  00000+0 -19300-3 0  9992","line2":"2 48436  53.1592 185.4383 0000898  83.8936 276.2168 15.31744688278293","mean_motion":15.31744688,"eccentricity":8.98e-5,"inclination_deg":53.1592,"raan_deg":185.4383,"arg_perigee_deg":83.8936,"mean_anomaly_deg":276.2168,"bstar":-0.000193,"rev_number":27829,"period_min":94.010445166303,"perigee_km":469.99176866975,"apogee_km":471.22180305369,"semimajor_km":6848.7437858617,"source":"CELESTRAK","updated_at":"2026-05-25T13:38:16.715082Z"}}